Tracking 35048 objects as of 19-Aug-2026
HD Live streaming from Space Station
objects crossing your sky now

STARLINK 1036

Track STARLINK 1036 now!
10-day predictions
STARLINK 1036 is classified as:


NORAD ID: 44741
Int'l Code: 2019-074AE
Launch date: November 11, 2019
Source: United States (US)
Launch site: AIR FORCE EASTERN TEST RANGE (AFETR)
Your satellite tracking list
Your tracking list is empty




NASA's NSSDC Master Catalog

Two Line Element Set (TLE):
1 44741U 19074AE  26230.92156750  .00103154  00000-0  47098-3 0  9994
2 44741  53.0387 106.8366 0003268 138.9616 221.1652 15.82993687374204
Source of the keplerian elements: AFSPC